FW4102 Weather Reports


time (UTC)temp
C
wind
direction
speed
KPH
gust
KPH
rain 1hr
cm
rain 24hr
cm
rain mn
cm
humidity
%
barometer
mb
20260505000044 12 198 0.0 6.4 0.00 0.20 0.13 66 1022.2
20260504234533 11 0 0.0 4.8 0.00 0.20 0.13 69 1022.2
20260504233035 11 192 1.6 4.8 0.00 0.20 0.13 69 1022.1
20260504231532 11 192 0.0 3.2 0.00 0.36 0.13 69 1022.1
20260504230043 10 0 0.0 0.0 0.00 0.36 0.13 69 1021.8
20260504224537 10 0 0.0 1.6 0.00 0.36 0.13 69 1021.9
20260504223036 10 192 0.0 3.2 0.00 0.36 0.13 69 1021.8
20260504221548 10 0 0.0 0.0 0.00 0.48 0.13 69 1021.6
20260504220037 10 0 0.0 0.0 0.00 0.46 0.10 69 1021.4
20260504214537 10 0 0.0 3.2 0.00 0.46 0.10 68 1021.3
20260504213052 10 0 0.0 4.8 0.00 0.46 0.10 68 1021.1
20260504211540 10 235 0.0 3.2 0.00 0.56 0.10 68 1020.7
20260504210038 10 0 0.0 3.2 0.00 0.56 0.10 68 1020.6
20260504204537 10 0 0.0 4.8 0.00 0.56 0.10 68 1020.5
20260504203046 10 234 1.6 4.8 0.00 0.56 0.10 68 1020.3
20260504201535 10 0 0.0 0.0 0.00 0.56 0.10 67 1020.2
20260504200035 10 0 0.0 6.4 0.00 0.56 0.10 67 1020.1
20260504194541 10 235 1.6 11.3 0.00 0.56 0.10 67 1020.0
20260504193034 11 0 1.6 9.7 0.00 0.56 0.10 67 1019.9
20260504191540 11 235 1.6 6.4 0.00 0.58 0.10 67 1019.9
20260504190034 11 235 0.0 6.4 0.03 0.58 0.10 67 1019.7
20260504184537 11 236 0.0 12.9 0.03 0.58 0.10 67 1019.6
20260504183036 11 200 1.6 8.0 0.03 0.58 0.10 66 1019.6
20260504181538 11 202 0.0 8.0 0.03 0.58 0.08 66 1019.5
20260504180045 11 0 0.0 0.0 0.00 0.56 0.08 66 1019.6
20260504174532 11 0 0.0 0.0 0.00 0.56 0.08 66 1019.6
20260504173035 11 0 0.0 0.0 0.03 0.56 0.08 66 1019.6
20260504171536 11 0 0.0 0.0 0.00 0.56 0.05 65 1019.7
20260504081545 12 0 0.0 6.4 0.00 2.06 1.65 64 1016.1
20260504044539 15 0 3.2 16.1 0.00 2.39 1.65 59 1013.8
20260504043037 15 265 1.6 19.3 0.00 2.39 1.65 58 1013.8
20260504041535 15 288 4.8 17.7 0.00 2.39 1.65 60 1013.7
20260504040057 15 232 3.2 17.7 0.00 2.39 1.65 59 1013.7
20260504034537 15 224 1.6 19.3 0.00 2.39 1.65 59 1013.7
20260504033036 15 217 4.8 14.5 0.00 2.39 1.65 58 1013.7
20260504031537 15 170 3.2 20.9 0.00 2.41 1.65 60 1013.8
20260504030036 14 217 6.4 22.5 0.00 2.41 1.65 58 1013.9
20260504024534 14 190 3.2 17.7 0.00 2.41 1.65 60 1014.0
20260504023037 14 320 1.6 16.1 0.00 2.41 1.65 61 1014.0
20260504021537 14 248 1.6 19.3 0.00 2.44 1.65 60 1014.1
20260504020037 14 265 6.4 17.7 0.00 2.44 1.65 59 1014.1
20260504014542 14 281 4.8 19.3 0.00 2.44 1.65 59 1013.9
20260504013035 14 254 8.0 27.4 0.00 2.44 1.65 59 1013.9
20260504011534 14 306 1.6 12.9 0.00 2.44 1.65 60 1013.8
20260504010037 13 303 3.2 14.5 0.00 2.44 1.65 63 1013.7
20260504004544 13 278 3.2 14.5 0.00 2.44 1.65 66 1013.5
20260504003036 13 302 3.2 17.7 0.00 2.44 1.65 68 1013.4
20260504001539 12 241 3.2 17.7 0.00 2.44 1.65 69 1013.2